Regional Weather Roundup
Issued by NWS Cleveland, OH

Home | Current Version | Previous Version | Text Only | Print | Product List | Glossary Off
Versions: 1 2 3 4 5 6 7 8 9 10 11 12 13 14 15 16 17 18 19 20 21 22 23 24 25 26 27 28 29 30 31 32 33 34 35 36 37 38 39 40 41 42 43 44 45 46 47 48 49 50

556
ASUS41 KCLE 161310
RWRCLE
OHIO REGIONAL WEATHER ROUNDUP
NATIONAL WEATHER SERVICE WILMINGTON, OH
800 AM EST SAT DEC 16 2017

NOTE: "FAIR" INDICATES FEW OR NO CLOUDS BELOW 12,000 FEET WITH NO
SIGNIFICANT WEATHER AND/OR OBSTRUCTIONS TO VISIBILITY.

OHZ001>008-015>018-024>027-034-035-043-044-161400-
   NORTHWEST OHIO

CITY           SKY/WX    TMP DP  RH WIND       PRES   REMARKS
DEFIANCE       MOCLDY    33  24  69 SW12      29.94R WCI  24
FINDLAY        CLOUDY    34  25  69 SW14      29.96R WCI  25
TOLEDO EXPRESS CLOUDY    34  26  72 SW13      29.94R WCI  25
TOLEDO EXEC    CLOUDY    33  25  72 SW14      29.95R WCI  23
LIMA           MOCLDY    34  26  72 SW16G22   29.96S WCI  24
$$

OHZ009>014-019>023-028>033-038-089-161400-
   NORTHEAST OHIO

CITY           SKY/WX    TMP DP  RH WIND       PRES   REMARKS
CLE-HOPKINS    CLOUDY    34  24  67 SW13      29.99S WCI  25
CLE-LAKEFRONT  CLOUDY    35  24  64 SW17G28   29.96S WCI  25
CUY CO. ARPT   FLURRIES  36  27  69 SW15G25   29.97R
LORAIN-ELYRIA  CLOUDY    32  21  64 SW13      29.97S WCI  22
ASHTABULA      LGT SNOW  29  26  89 SW13      29.96R FOG     WCI  19
AKRON-CANTON   FLURRIES  30  23  75 SW14      29.99R WCI  19
WOOSTER        CLOUDY    30  23  75 SW9       29.99R WCI  22
MANSFIELD      CLOUDY    33  24  69 SW17G28   29.97S WCI  22
YOUNGSTOWN     CLOUDY    29  25  85 SW12      29.98R WCI  19
$$

OHZ042-051>053-060>062-070>072-077>081-161400-
  SOUTHWEST OHIO

CITY           SKY/WX    TMP DP  RH WIND       PRES   REMARKS
CINC-COVINGTON FAIR      32  25  75 SW13      30.07S WCI  22
CINC-LUNKEN    FAIR      31  24  75 SW8       30.11S WCI  23
HAMILTON       FAIR      33  26  75 SW8       30.08S WCI  26
DAYTON         MOCLDY    32  26  78 S14       30.02F WCI  22
WRIGHT-PAT AFB CLOUDY    34  26  72 S10       30.03S WCI  26
DAYTON GENERAL FAIR      33  24  69 S12       30.04S WCI  24
WILMINGTON     FAIR      32  25  75 SW16      30.04S WCI  21
$$

OHZ036-037-039>041-045>050-054>059-063>069-073>076-082>088-161400-
  CENTRAL AND SOUTHEAST OHIO

CITY           SKY/WX    TMP DP  RH WIND       PRES   REMARKS
COLUMBUS       CLOUDY    35  25  66 SW10      30.04S WCI  27
OSU AIRPORT    CLOUDY    33  26  75 SW12      30.02S WCI  24
BOLTON FIELD   CLOUDY    34  25  69 SW13G20   30.04S WCI  25
RICKENBACK AFB CLOUDY    33  25  71 SW13      30.05S WCI  24
NEWARK         CLOUDY    34  24  67 SW8       30.03F WCI  27
MARION         CLOUDY    33  24  69 SW13      30.00R WCI  24
LANCASTER      CLOUDY    34  24  67 SW9       30.05F WCI  27
ZANESVILLE     CLOUDY    33  22  63 S9        30.05F WCI  25
NEW PHILLY     CLOUDY    32  23  69 SW7       30.05R WCI  26
$$




USA.gov is the U.S. government's official web portal to all federal, state and local government web resources and services.